Location: Auckland
(36.8670°S, 174.7670°E)
Time: 04:27:40
(UTC+12:00)

Courier 1B Rocket - Pass Details

Date: 24 July 2019
Orbit: 920 x 1202 km, 28.3° (Epoch: 20 August)

Event Time Altitude Azimuth Distance (km) Brightness Sun altitude
Rises 06:43:23 0° 278° (W) 4,067 - -8.8°
Exits shadow 06:44:57 - 280° (W) 3,559 7.4 -8.5°
Reaches altitude 10° 06:46:28 10° 284° (WNW) 3,076 7.1 -8.2°
Maximum altitude 06:53:26 39° 350° (N) 1,607 6.3 -6.9°
Drops below altitude 10° 06:59:58 10° 56° (ENE) 2,891 9.1 -5.7°
Sets 07:02:47 0° 64° (ENE) 3,799 10.8 -5.2°
